Погода в Тальменке

Россия / Новосибирская область     54°42′33″N   83°16′43″E
темп.,
°C
ветер,
м/с
пор.,
м/с
влажн.,
%
обл.,
%
осадки,
мм/ч
давл.,
гПа
погр.,
м
8 марта, пн
пн801:00−13ююв237981 0.0 102121
04:00−11юв489397 0.0 1019126
07:00−5ююв7139499 0.0 1016423
10:00−6ю71388100 0.0 1013415
13:00−2ю81484100 0.0 1010565
16:00−1ююз81680100 0.0 1007719
19:00−2юз71586100 0.0 1008919
22:00−1зюз81397100 0.6 1011827
9 марта, вт
вт901:00−12з499482 0.9 1016206
04:00−15зюз489659 0.0 1021154
07:00−15юз499476 0.0 1024194
10:00−14ююз4108924 0.0 1026295
13:00−9ююз6118541 0.0 1026556
16:00−7ююз5108219 0.0 1025636
19:00−10ююз488727 0.0 1024182
22:00−11ю4118996 0.0 1023259
10 марта, ср
ср1001:00−13ю469263 0.0 1021132
04:00−15ю359436 0.0 102072
07:00−16ю339646 0.0 102039
10:00−11ю369369 0.0 1019194
13:00−7ю359076 0.0 1018321
16:00−4ююв359299 0.0 1016346
19:00−2ююв4995100 0.0 1011418
22:00−1ююв71689100 0.0 1007526
11 марта, чт
чт1101:000ю81782100 0.0 1001792
04:00+2ююз817100100 0.5 1000859
07:00−4зюз10178498 0.6 1004827
10:00−9юз81589100 0.0 1010687
13:00−6зюз71288100 0.1 1012713
16:00−5юз71187100 0.0 1013913
19:00−7юз61387100 0.1 1015805
22:00−11ююз4119262 0.0 1018276
12 марта, пт
пт1201:00−10ююв4108880 0.0 1015289
04:00−4ююз91887100 0.3 10111499
07:00−9зюз10168490 0.5 1014937
10:00−13юз81488100 0.0 1018858
13:00−13зюз91387100 0.1 10201209
16:00−13зюз81285100 0.1 10221120
19:00−16зюз71290100 0.2 1024747
22:00−18зюз61294100 0.0 1027587